Regional Weather Roundup
Issued by NWS

Home | Current Version | Previous Version | Text Only | Print | Product List | Glossary Off
Versions: 1 2 3 4 5 6 7 8 9 10 11 12 13 14 15 16 17 18 19 20 21 22 23 24 25 26 27 28 29 30 31 32 33 34 35 36 37 38 39 40 41 42 43 44 45 46 47 48 49 50

000
ASUS43 KLOT 220558
RWRIL

ILLINOIS REGIONAL WEATHER ROUNDUP
NATIONAL WEATHER SERVICE CHICAGO/ROMEOVILLE IL
100 AM CDT FRI AUG 22 2014

NOTE: "FAIR" INDICATES FEW OR NO CLOUDS BELOW 12,000 FEET WITH NO
SIGNIFICANT WEATHER AND/OR OBSTRUCTIONS TO VISIBILITY.

* THESE STATIONS ARE NOT UNDER NWS QUALITY CONTROL. THEY ALSO MAY NOT
  REPORT WEATHER SUCH AS PRECIPITATION OR FOG.

ILZ001-002-007-009-015-016-024-220700-
NORTHWEST ILLINOIS

CITY           SKY/WX    TMP DP  RH WIND       PRES   REMARKS
MOLINE         FAIR      74  72  93 CALM      29.88F
6HR MIN TEMP:  74; 6HR MAX TEMP:  82;

$$

ILZ003-004-008-010-011-017-018-220700-
NORTH CENTRAL ILLINOIS

CITY           SKY/WX    TMP DP  RH WIND       PRES   REMARKS
ROCKFORD       NOT AVBL
$$

ILZ005-006-012>014-019>023-220700-
NORTHEAST ILLINOIS

CITY           SKY/WX    TMP DP  RH WIND       PRES   REMARKS
CHICAGO-OHARE  TSTM      75  70  84 NW10      29.93F
6HR MIN TEMP:  74; 6HR MAX TEMP:  76; 6HR PCP:  0.02;

CHICAGO-MIDWAY CLOUDY    76  73  91 SE8       29.91F
6HR MIN TEMP:  76; 6HR MAX TEMP:  78;

AURORA         MOCLDY    74  71  91 S3        29.92F
6HR MIN TEMP:  74; 6HR MAX TEMP:  78; 6HR PCP: TRACE;

WAUKEGAN       LGT RAIN  71  70  96 CALM      29.92F VSB 1/4
6HR MIN TEMP:  71; 6HR MAX TEMP:  73; 6HR PCP:  0.04;

DUPAGE AIRPORT CLOUDY    74  72  93 N8        29.93R
6HR MIN TEMP:  74; 6HR MAX TEMP:  77; 6HR PCP:  0.05;

WHEELING       HVY RAIN  75  73  93 NW8       29.96R VSB 3/4
6HR MIN TEMP:  75; 6HR MAX TEMP:  77; 6HR PCP:  0.39;

NORTHERLY ISL    N/A     73  69  87 SE6         N/A
$$

LMZ740>746-220700-
SOUTHERN LAKE MICHIGAN

STATION/POSITION SKY/WX   TEMP    WIND        PRES    VSBY  WAVE
                          AIR SEA DIR/SP/G                  HT/PER
                          (F)     (DEG/KT/KT) (MB)    (MI)  (FT/S)
SOUTHERN BUOY              69 68  110/  4/  4 1014.6R         0
WAUKEGAN HARBOR            71        CALM       N/A
HARRISON CRIB              74     170/ 12/ 14   N/A
BURNHAM HARBOR             73     200/  3/ 11   N/A
CALUMET HARBOR             74     110/  4/  6 1012.6F
MICHIGAN CITY              73     140/ 12/ 15   N/A
MICHIGAN CITY 6N           73 71  160/  8/ 12   N/A           1
ST. JOSEPH                 72 71  160/  4/  6   N/A           1
$$

ILZ025>027-034>036-040-047-049-050-058-095>099-220700-
WEST-CENTRAL ILLINOIS

CITY           SKY/WX    TMP DP  RH WIND       PRES   REMARKS
$$

ILZ028>032-037-038-041>044-048-051>054-059>061-220700-
CENTRAL ILLINOIS

CITY           SKY/WX    TMP DP  RH WIND       PRES   REMARKS
PEORIA         NOT AVBL
SPRINGFIELD    FAIR      81  76  84 S12       29.92F HX  87
6HR MIN TEMP:  81; 6HR MAX TEMP:  88;

TAYLORVILLE    NOT AVBL
$$

ILZ033-039-045-046-055>057-062-063-220700-
EAST-CENTRAL ILLINOIS

CITY           SKY/WX    TMP DP  RH WIND       PRES   REMARKS
CHAMPAIGN      FAIR      77  75  93 S9        29.94F
$$

ILZ079-100>102-220700-
SOUTHWEST ILLINOIS

CITY           SKY/WX    TMP DP  RH WIND       PRES   REMARKS
CAHOKIA*       FAIR      78  75  90 S5        29.96S HX  81
$$

ILZ064>066-069>071-074>076-080>082-084>086-088>090-092>094-220700-
SOUTH-CENTRAL ILLINOIS

CITY           SKY/WX    TMP DP  RH WIND       PRES   REMARKS
CARBONDALE     FAIR      79  72  79 SW7       30.02R HX  82
6HR MIN TEMP:  79; 6HR MAX TEMP:  85;

$$

ILZ067-068-072-073-078-083-087-091-220700-
SOUTHEAST ILLINOIS

CITY           SKY/WX    TMP DP  RH WIND       PRES   REMARKS
$$

ABBREVIATIONS USED IN REMARKS
   TC - TEMPERATURE IN CELSIUS
  WCI - WIND CHILL INDEX
   HX - HEAT INDEX
  VSB - VISIBILITY
$$




USA.gov is the U.S. government's official web portal to all federal, state and local government web resources and services.